Year,Month,Day,Hour,Minute,Value (Times are PST for temperature in C)
2015,09,22,00,00,7.80
2015,09,22,00,01,7.80
2015,09,22,00,02,7.80
2015,09,22,00,03,7.80
2015,09,22,00,04,7.80
2015,09,22,00,05,7.80
2015,09,22,00,06,7.80
2015,09,22,00,07,7.80
2015,09,22,00,08,7.80
2015,09,22,00,09,7.80
2015,09,22,00,10,7.80
2015,09,22,00,11,7.80
2015,09,22,00,12,7.80
2015,09,22,00,13,7.80
2015,09,22,00,14,7.80
2015,09,22,00,15,7.80
2015,09,22,00,16,7.80
2015,09,22,00,17,7.80
2015,09,22,00,18,7.80
2015,09,22,00,19,7.80
2015,09,22,00,20,7.70
2015,09,22,00,21,7.70
2015,09,22,00,22,7.70
2015,09,22,00,23,7.70
2015,09,22,00,24,7.60
2015,09,22,00,25,7.60
2015,09,22,00,26,7.60
2015,09,22,00,27,7.60
2015,09,22,00,28,7.50
2015,09,22,00,29,7.50
2015,09,22,00,30,7.50
2015,09,22,00,31,7.40
2015,09,22,00,32,7.40
2015,09,22,00,33,7.40
2015,09,22,00,34,7.40
2015,09,22,00,35,7.40
2015,09,22,00,36,7.40
2015,09,22,00,37,7.50
2015,09,22,00,38,7.50
2015,09,22,00,39,7.50
2015,09,22,00,40,7.50
2015,09,22,00,41,7.50
2015,09,22,00,42,7.50
2015,09,22,00,43,7.50
2015,09,22,00,44,7.50
2015,09,22,00,45,7.50
2015,09,22,00,46,7.40
2015,09,22,00,47,7.40
2015,09,22,00,48,7.40
2015,09,22,00,49,7.40
2015,09,22,00,50,7.40
2015,09,22,00,51,7.40
2015,09,22,00,52,7.50
2015,09,22,00,53,7.50
2015,09,22,00,54,7.50
2015,09,22,00,55,7.40
2015,09,22,00,56,7.40
2015,09,22,00,57,7.40
2015,09,22,00,58,7.40
2015,09,22,00,59,7.40
2015,09,22,01,00,7.30
2015,09,22,01,01,7.30
2015,09,22,01,02,7.30
2015,09,22,01,03,7.20
2015,09,22,01,04,7.20
2015,09,22,01,05,7.20
2015,09,22,01,06,7.20
2015,09,22,01,07,7.10
2015,09,22,01,08,7.10
2015,09,22,01,09,7.00
2015,09,22,01,10,7.00
2015,09,22,01,11,6.90
2015,09,22,01,12,6.90
2015,09,22,01,13,6.90
2015,09,22,01,14,6.90
2015,09,22,01,15,6.90
2015,09,22,01,16,6.80
2015,09,22,01,17,6.80
2015,09,22,01,18,6.80
2015,09,22,01,19,6.80
2015,09,22,01,20,6.90
2015,09,22,01,21,6.90
2015,09,22,01,22,6.90
2015,09,22,01,23,6.80
2015,09,22,01,24,6.80
2015,09,22,01,25,6.90
2015,09,22,01,26,6.90
2015,09,22,01,27,6.80
2015,09,22,01,28,6.80
2015,09,22,01,29,6.80
2015,09,22,01,30,6.90
2015,09,22,01,31,6.90
2015,09,22,01,32,7.00
2015,09,22,01,33,7.00
2015,09,22,01,34,7.10
2015,09,22,01,35,7.10
2015,09,22,01,36,7.10
2015,09,22,01,37,7.10
2015,09,22,01,38,7.10
2015,09,22,01,39,7.10
2015,09,22,01,40,7.10
2015,09,22,01,41,7.10
2015,09,22,01,42,7.10
2015,09,22,01,43,7.00
2015,09,22,01,44,7.00
2015,09,22,01,45,7.00
2015,09,22,01,46,6.90
2015,09,22,01,47,6.90
2015,09,22,01,48,6.90
2015,09,22,01,49,6.80
2015,09,22,01,50,6.80
2015,09,22,01,51,6.80
2015,09,22,01,52,6.80
2015,09,22,01,53,6.70
2015,09,22,01,54,6.70
2015,09,22,01,55,6.70
2015,09,22,01,56,6.70
2015,09,22,01,57,6.60
2015,09,22,01,58,6.60
2015,09,22,01,59,6.60
2015,09,22,02,00,6.60
2015,09,22,02,01,6.60
2015,09,22,02,02,6.50
2015,09,22,02,03,6.50
2015,09,22,02,04,6.50
2015,09,22,02,05,6.40
2015,09,22,02,06,6.40
2015,09,22,02,07,6.40
2015,09,22,02,08,6.40
2015,09,22,02,09,6.30
2015,09,22,02,10,6.30
2015,09,22,02,11,6.30
2015,09,22,02,12,6.30
2015,09,22,02,13,6.30
2015,09,22,02,14,6.30
2015,09,22,02,15,6.30
2015,09,22,02,16,6.30
2015,09,22,02,17,6.30
2015,09,22,02,18,6.30
2015,09,22,02,19,6.30
2015,09,22,02,20,6.30
2015,09,22,02,21,6.30
2015,09,22,02,22,6.30
2015,09,22,02,23,6.30
2015,09,22,02,24,6.30
2015,09,22,02,25,6.30
2015,09,22,02,26,6.30
2015,09,22,02,27,6.30
2015,09,22,02,28,6.20
2015,09,22,02,29,6.20
2015,09,22,02,30,6.10
2015,09,22,02,31,6.10
2015,09,22,02,32,6.00
2015,09,22,02,33,6.00
2015,09,22,02,34,5.90
2015,09,22,02,35,5.90
2015,09,22,02,36,5.90
2015,09,22,02,37,5.90
2015,09,22,02,38,5.90
2015,09,22,02,39,5.90
2015,09,22,02,40,5.90
2015,09,22,02,41,5.90
2015,09,22,02,42,5.90
2015,09,22,02,43,5.90
2015,09,22,02,44,5.90
2015,09,22,02,45,5.90
2015,09,22,02,46,5.90
2015,09,22,02,47,5.90
2015,09,22,02,48,5.90
2015,09,22,02,49,5.90
2015,09,22,02,50,5.80
2015,09,22,02,51,5.80
2015,09,22,02,52,5.80
2015,09,22,02,53,5.80
2015,09,22,02,54,5.70
2015,09,22,02,55,5.70
2015,09,22,02,56,5.70
2015,09,22,02,57,5.70
2015,09,22,02,58,5.70
2015,09,22,02,59,5.60
2015,09,22,03,00,5.60
2015,09,22,03,01,5.60
2015,09,22,03,02,5.70
2015,09,22,03,03,5.70
2015,09,22,03,04,5.80
2015,09,22,03,05,5.90
2015,09,22,03,06,5.90
2015,09,22,03,07,5.90
2015,09,22,03,08,5.90
2015,09,22,03,09,5.80
2015,09,22,03,10,5.80
2015,09,22,03,11,5.80
2015,09,22,03,12,5.80
2015,09,22,03,13,5.80
2015,09,22,03,14,5.80
2015,09,22,03,15,5.70
2015,09,22,03,16,5.80
2015,09,22,03,17,5.80
2015,09,22,03,18,5.90
2015,09,22,03,19,5.90
2015,09,22,03,20,5.90
2015,09,22,03,21,5.90
2015,09,22,03,22,5.90
2015,09,22,03,23,5.90
2015,09,22,03,24,5.90
2015,09,22,03,25,5.90
2015,09,22,03,26,5.90
2015,09,22,03,27,5.90
2015,09,22,03,28,5.80
2015,09,22,03,29,5.80
2015,09,22,03,30,5.80
2015,09,22,03,31,5.70
2015,09,22,03,32,5.70
2015,09,22,03,33,5.70
2015,09,22,03,34,5.60
2015,09,22,03,35,5.60
2015,09,22,03,36,5.60
2015,09,22,03,37,5.60
2015,09,22,03,38,5.50
2015,09,22,03,39,5.50
2015,09,22,03,40,5.50
2015,09,22,03,41,5.40
2015,09,22,03,42,5.40
2015,09,22,03,43,5.40
2015,09,22,03,44,5.30
2015,09,22,03,45,5.30
2015,09,22,03,46,5.30
2015,09,22,03,47,5.30
2015,09,22,03,48,5.30
2015,09,22,03,49,5.20
2015,09,22,03,50,5.20
2015,09,22,03,51,5.20
2015,09,22,03,52,5.20
2015,09,22,03,53,5.20
2015,09,22,03,54,5.20
2015,09,22,03,55,5.30
2015,09,22,03,56,5.30
2015,09,22,03,57,5.30
2015,09,22,03,58,5.40
2015,09,22,03,59,5.40
2015,09,22,04,00,5.50
2015,09,22,04,01,5.50
2015,09,22,04,02,5.50
2015,09,22,04,03,5.50
2015,09,22,04,04,5.50
2015,09,22,04,05,5.50
2015,09,22,04,06,5.50
2015,09,22,04,07,5.40
2015,09,22,04,08,5.40
2015,09,22,04,09,5.40
2015,09,22,04,10,5.40
2015,09,22,04,11,5.40
2015,09,22,04,12,5.30
2015,09,22,04,13,5.30
2015,09,22,04,14,5.30
2015,09,22,04,15,5.30
2015,09,22,04,16,5.30
2015,09,22,04,17,5.30
2015,09,22,04,18,5.20
2015,09,22,04,19,5.20
2015,09,22,04,20,5.20
2015,09,22,04,21,5.20
2015,09,22,04,22,5.10
2015,09,22,04,23,5.10
2015,09,22,04,24,5.10
2015,09,22,04,25,5.10
2015,09,22,04,26,5.10
2015,09,22,04,27,5.10
2015,09,22,04,28,5.10
2015,09,22,04,29,5.10
2015,09,22,04,30,5.10
2015,09,22,04,31,5.10
2015,09,22,04,32,5.10
2015,09,22,04,33,5.10
2015,09,22,04,34,5.10
2015,09,22,04,35,5.10
2015,09,22,04,36,5.10
2015,09,22,04,37,5.10
2015,09,22,04,38,5.10
2015,09,22,04,39,5.10
2015,09,22,04,40,5.10
2015,09,22,04,41,5.10
2015,09,22,04,42,5.10
2015,09,22,04,43,5.10
2015,09,22,04,44,5.10
2015,09,22,04,45,5.20
2015,09,22,04,46,5.20
2015,09,22,04,47,5.20
2015,09,22,04,48,5.20
2015,09,22,04,49,5.20
2015,09,22,04,50,5.20
2015,09,22,04,51,5.20
2015,09,22,04,52,5.20
2015,09,22,04,53,5.20
2015,09,22,04,54,5.20
2015,09,22,04,55,5.20
2015,09,22,04,56,5.20
2015,09,22,04,57,5.20
2015,09,22,04,58,5.20
2015,09,22,04,59,5.20
2015,09,22,05,00,5.20
2015,09,22,05,01,5.20
2015,09,22,05,02,5.20
2015,09,22,05,03,5.20
2015,09,22,05,04,5.20
2015,09,22,05,05,5.10
2015,09,22,05,06,5.10
2015,09,22,05,07,5.10
2015,09,22,05,08,5.10
2015,09,22,05,09,5.10
2015,09,22,05,10,5.10
2015,09,22,05,11,5.10
2015,09,22,05,12,5.10
2015,09,22,05,13,5.10
2015,09,22,05,14,5.10
2015,09,22,05,15,5.20
2015,09,22,05,16,5.40
2015,09,22,05,17,5.50
2015,09,22,05,18,5.70
2015,09,22,05,19,5.80
2015,09,22,05,20,5.90
2015,09,22,05,21,6.00
2015,09,22,05,22,6.00
2015,09,22,05,23,6.00
2015,09,22,05,24,6.00
2015,09,22,05,25,6.00
2015,09,22,05,26,6.00
2015,09,22,05,27,6.00
2015,09,22,05,28,6.00
2015,09,22,05,29,5.90
2015,09,22,05,30,5.90
2015,09,22,05,31,5.90
2015,09,22,05,32,5.90
2015,09,22,05,33,5.80
2015,09,22,05,34,5.80
2015,09,22,05,35,5.80
2015,09,22,05,36,5.70
2015,09,22,05,37,5.70
2015,09,22,05,38,5.70
2015,09,22,05,39,5.60
2015,09,22,05,40,5.60
2015,09,22,05,41,5.60
2015,09,22,05,42,5.50
2015,09,22,05,43,5.50
2015,09,22,05,44,5.50
2015,09,22,05,45,5.40
2015,09,22,05,46,5.40
2015,09,22,05,47,5.40
2015,09,22,05,48,5.40
2015,09,22,05,49,5.40
2015,09,22,05,50,5.50
2015,09,22,05,51,5.50
2015,09,22,05,52,5.70
2015,09,22,05,53,5.80
2015,09,22,05,54,5.80
2015,09,22,05,55,5.80
2015,09,22,05,56,5.80
2015,09,22,05,57,5.80
2015,09,22,05,58,5.80
2015,09,22,05,59,5.80
2015,09,22,06,00,5.70
2015,09,22,06,01,5.70
2015,09,22,06,02,5.70
2015,09,22,06,03,5.60
2015,09,22,06,04,5.60
2015,09,22,06,05,5.60
2015,09,22,06,06,5.50
2015,09,22,06,07,5.50
2015,09,22,06,08,5.50
2015,09,22,06,09,5.40
2015,09,22,06,10,5.40
2015,09,22,06,11,5.40
2015,09,22,06,12,5.40
2015,09,22,06,13,5.40
2015,09,22,06,14,5.40
2015,09,22,06,15,5.40
2015,09,22,06,16,5.40
2015,09,22,06,17,5.40
2015,09,22,06,18,5.50
2015,09,22,06,19,5.50
2015,09,22,06,20,5.40
2015,09,22,06,21,5.40
2015,09,22,06,22,5.40
2015,09,22,06,23,5.40
2015,09,22,06,24,5.40
2015,09,22,06,25,5.40
2015,09,22,06,26,5.40
2015,09,22,06,27,5.40
2015,09,22,06,28,5.40
2015,09,22,06,29,5.40
2015,09,22,06,30,5.40
2015,09,22,06,31,5.40
2015,09,22,06,32,5.40
2015,09,22,06,33,5.50
2015,09,22,06,34,5.50
2015,09,22,06,35,5.40
2015,09,22,06,36,5.40
2015,09,22,06,37,5.40
2015,09,22,06,38,5.40
2015,09,22,06,39,5.40
2015,09,22,06,40,5.30
2015,09,22,06,41,5.30
2015,09,22,06,42,5.30
2015,09,22,06,43,5.30
2015,09,22,06,44,5.30
2015,09,22,06,45,5.30
2015,09,22,06,46,5.30
2015,09,22,06,47,5.30
2015,09,22,06,48,5.30
2015,09,22,06,49,5.30
2015,09,22,06,50,5.30
2015,09,22,06,51,5.30
2015,09,22,06,52,5.30
2015,09,22,06,53,5.30
2015,09,22,06,54,5.30
2015,09,22,06,55,5.30
2015,09,22,06,56,5.30
2015,09,22,06,57,5.30
2015,09,22,06,58,5.30
2015,09,22,06,59,5.30
2015,09,22,07,00,5.30
2015,09,22,07,01,5.30
2015,09,22,07,02,5.30
2015,09,22,07,03,5.30
2015,09,22,07,04,5.30
2015,09,22,07,05,5.30
2015,09,22,07,06,5.30
2015,09,22,07,07,5.40
2015,09,22,07,08,5.40
2015,09,22,07,09,5.40
2015,09,22,07,10,5.40
2015,09,22,07,11,5.40
2015,09,22,07,12,5.40
2015,09,22,07,13,5.40
2015,09,22,07,14,5.50
2015,09,22,07,15,5.50
2015,09,22,07,16,5.50
2015,09,22,07,17,5.60
2015,09,22,07,18,5.60
2015,09,22,07,19,5.60
2015,09,22,07,20,5.60
2015,09,22,07,21,5.60
2015,09,22,07,22,5.70
2015,09,22,07,23,5.70
2015,09,22,07,24,5.70
2015,09,22,07,25,5.70
2015,09,22,07,26,5.70
2015,09,22,07,27,5.70
2015,09,22,07,28,5.80
2015,09,22,07,29,5.80
2015,09,22,07,30,5.80
2015,09,22,07,31,5.90
2015,09,22,07,32,5.90
2015,09,22,07,33,6.00
2015,09,22,07,34,6.00
2015,09,22,07,35,6.00
2015,09,22,07,36,6.10
2015,09,22,07,37,6.10
2015,09,22,07,38,6.20
2015,09,22,07,39,6.20
2015,09,22,07,40,6.30
2015,09,22,07,41,6.30
2015,09,22,07,42,6.30
2015,09,22,07,43,6.40
2015,09,22,07,44,6.40
2015,09,22,07,45,6.50
2015,09,22,07,46,6.50
2015,09,22,07,47,6.60
2015,09,22,07,48,6.60
2015,09,22,07,49,6.70
2015,09,22,07,50,6.70
2015,09,22,07,51,6.70
2015,09,22,07,52,6.70
2015,09,22,07,53,6.70
2015,09,22,07,54,6.70
2015,09,22,07,55,6.80
2015,09,22,07,56,6.80
2015,09,22,07,57,6.80
2015,09,22,07,58,6.80
2015,09,22,07,59,6.90
2015,09,22,08,00,6.90
2015,09,22,08,01,6.90
2015,09,22,08,02,6.90
2015,09,22,08,03,7.00
2015,09,22,08,04,7.00
2015,09,22,08,05,7.00
2015,09,22,08,06,7.10
2015,09,22,08,07,7.10
2015,09,22,08,08,7.10
2015,09,22,08,09,7.20
2015,09,22,08,10,7.20
2015,09,22,08,11,7.20
2015,09,22,08,12,7.30
2015,09,22,08,13,7.30
2015,09,22,08,14,7.30
2015,09,22,08,15,7.40
2015,09,22,08,16,7.40
2015,09,22,08,17,7.40
2015,09,22,08,18,7.50
2015,09,22,08,19,7.50
2015,09,22,08,20,7.60
2015,09,22,08,21,7.60
2015,09,22,08,22,7.70
2015,09,22,08,23,7.70
2015,09,22,08,24,7.70
2015,09,22,08,25,7.80
2015,09,22,08,26,7.80
2015,09,22,08,27,7.90
2015,09,22,08,28,7.90
2015,09,22,08,29,8.00
2015,09,22,08,30,8.00
2015,09,22,08,31,8.10
2015,09,22,08,32,8.10
2015,09,22,08,33,8.20
2015,09,22,08,34,8.20
2015,09,22,08,35,8.20
2015,09,22,08,36,8.20
2015,09,22,08,37,8.30
2015,09,22,08,38,8.30
2015,09,22,08,39,8.30
2015,09,22,08,40,8.30
2015,09,22,08,41,8.30
2015,09,22,08,42,8.40
2015,09,22,08,43,8.40
2015,09,22,08,44,8.40
2015,09,22,08,45,8.40
2015,09,22,08,46,8.50
2015,09,22,08,47,8.60
2015,09,22,08,48,8.60
2015,09,22,08,49,8.60
2015,09,22,08,50,8.60
2015,09,22,08,51,8.70
2015,09,22,08,52,8.70
2015,09,22,08,53,8.70
2015,09,22,08,54,8.80
2015,09,22,08,55,8.80
2015,09,22,08,56,8.80
2015,09,22,08,57,8.80
2015,09,22,08,58,8.80
2015,09,22,08,59,8.80
2015,09,22,09,00,8.80
2015,09,22,09,01,8.80
2015,09,22,09,02,8.90
2015,09,22,09,03,8.90
2015,09,22,09,04,9.00
2015,09,22,09,05,9.00
2015,09,22,09,06,9.10
2015,09,22,09,07,9.10
2015,09,22,09,08,9.10
2015,09,22,09,09,9.20
2015,09,22,09,10,9.20
2015,09,22,09,11,9.20
2015,09,22,09,12,9.20
2015,09,22,09,13,9.30
2015,09,22,09,14,9.30
2015,09,22,09,15,9.30
2015,09,22,09,16,9.40
2015,09,22,09,17,9.40
2015,09,22,09,18,9.40
2015,09,22,09,19,9.40
2015,09,22,09,20,9.50
2015,09,22,09,21,9.50
2015,09,22,09,22,9.50
2015,09,22,09,23,9.60
2015,09,22,09,24,9.60
2015,09,22,09,25,9.60
2015,09,22,09,26,9.60
2015,09,22,09,27,9.70
2015,09,22,09,28,9.70
2015,09,22,09,29,9.80
2015,09,22,09,30,9.80
2015,09,22,09,31,9.80
2015,09,22,09,32,9.90
2015,09,22,09,33,9.90
2015,09,22,09,34,9.90
2015,09,22,09,35,10.00
2015,09,22,09,36,10.00
2015,09,22,09,37,10.10
2015,09,22,09,38,10.10
2015,09,22,09,39,10.10
2015,09,22,09,40,10.20
2015,09,22,09,41,10.20
2015,09,22,09,42,10.30
2015,09,22,09,43,10.30
2015,09,22,09,44,10.40
2015,09,22,09,45,10.40
2015,09,22,09,46,10.50
2015,09,22,09,47,10.50
2015,09,22,09,48,10.60
2015,09,22,09,49,10.60
2015,09,22,09,50,10.60
2015,09,22,09,51,10.60
2015,09,22,09,52,10.70
2015,09,22,09,53,10.70
2015,09,22,09,54,10.70
2015,09,22,09,55,10.80
2015,09,22,09,56,10.80
2015,09,22,09,57,10.80
2015,09,22,09,58,10.80
2015,09,22,09,59,10.90
2015,09,22,10,00,10.90
2015,09,22,10,01,11.00
2015,09,22,10,02,11.00
2015,09,22,10,03,11.10
2015,09,22,10,04,11.20
2015,09,22,10,05,11.20
2015,09,22,10,06,11.20
2015,09,22,10,07,11.30
2015,09,22,10,08,11.30
2015,09,22,10,09,11.30
2015,09,22,10,10,11.30
2015,09,22,10,11,11.30
2015,09,22,10,12,11.30
2015,09,22,10,13,11.30
2015,09,22,10,14,11.30
2015,09,22,10,15,11.30
2015,09,22,10,16,11.30
2015,09,22,10,17,11.30
2015,09,22,10,18,11.30
2015,09,22,10,19,11.40
2015,09,22,10,20,11.40
2015,09,22,10,21,11.40
2015,09,22,10,22,11.40
2015,09,22,10,23,11.30
2015,09,22,10,24,11.30
2015,09,22,10,25,11.30
2015,09,22,10,26,11.30
2015,09,22,10,27,11.30
2015,09,22,10,28,11.30
2015,09,22,10,29,11.30
2015,09,22,10,30,11.30
2015,09,22,10,31,11.30
2015,09,22,10,32,11.20
2015,09,22,10,33,11.20
2015,09,22,10,34,11.20
2015,09,22,10,35,11.30
2015,09,22,10,36,11.20
2015,09,22,10,37,11.30
2015,09,22,10,38,11.30
2015,09,22,10,39,11.30
2015,09,22,10,40,11.30
2015,09,22,10,41,11.30
2015,09,22,10,42,11.30
2015,09,22,10,43,11.30
2015,09,22,10,44,11.30
2015,09,22,10,45,11.30
2015,09,22,10,46,11.30
2015,09,22,10,47,11.30
2015,09,22,10,48,11.30
2015,09,22,10,49,11.30
2015,09,22,10,50,11.30
2015,09,22,10,51,11.30
2015,09,22,10,52,11.30
2015,09,22,10,53,11.30
2015,09,22,10,54,11.30
2015,09,22,10,55,11.30
2015,09,22,10,56,11.30
2015,09,22,10,57,11.30
2015,09,22,10,58,11.40
2015,09,22,10,59,11.40
2015,09,22,11,00,11.40
2015,09,22,11,01,11.40
2015,09,22,11,02,11.40
2015,09,22,11,03,11.40
2015,09,22,11,04,11.50
2015,09,22,11,05,11.50
2015,09,22,11,06,11.50
2015,09,22,11,07,11.50
2015,09,22,11,08,11.50
2015,09,22,11,09,11.60
2015,09,22,11,10,11.60
2015,09,22,11,11,11.60
2015,09,22,11,12,11.60
2015,09,22,11,13,11.60
2015,09,22,11,14,11.70
2015,09,22,11,15,11.70
2015,09,22,11,16,11.70
2015,09,22,11,17,11.80
2015,09,22,11,18,11.80
2015,09,22,11,19,11.80
2015,09,22,11,20,11.80
2015,09,22,11,21,11.90
2015,09,22,11,22,11.90
2015,09,22,11,23,12.00
2015,09,22,11,24,12.00
2015,09,22,11,25,12.10
2015,09,22,11,26,12.20
2015,09,22,11,27,12.20
2015,09,22,11,28,12.30
2015,09,22,11,29,12.30
2015,09,22,11,30,12.30
2015,09,22,11,31,12.30
2015,09,22,11,32,12.40
2015,09,22,11,33,12.40
2015,09,22,11,34,12.40
2015,09,22,11,35,12.40
2015,09,22,11,36,12.40
2015,09,22,11,37,12.40
2015,09,22,11,38,12.40
2015,09,22,11,39,12.40
2015,09,22,11,40,12.40
2015,09,22,11,41,12.40
2015,09,22,11,42,12.40
2015,09,22,11,43,12.40
2015,09,22,11,44,12.50
2015,09,22,11,45,12.50
2015,09,22,11,46,12.50
2015,09,22,11,47,12.50
2015,09,22,11,48,12.60
2015,09,22,11,49,12.60
2015,09,22,11,50,12.60
2015,09,22,11,51,12.60
2015,09,22,11,52,12.70
2015,09,22,11,53,12.70
2015,09,22,11,54,12.70
2015,09,22,11,55,12.80
2015,09,22,11,56,12.80
2015,09,22,11,57,12.80
2015,09,22,11,58,12.90
2015,09,22,11,59,12.90
2015,09,22,12,00,13.00
2015,09,22,12,01,13.10
2015,09,22,12,02,13.10
2015,09,22,12,03,13.10
2015,09,22,12,04,13.20
2015,09,22,12,05,13.20
2015,09,22,12,06,13.20
2015,09,22,12,07,13.20
2015,09,22,12,08,13.20
2015,09,22,12,09,13.20
2015,09,22,12,10,13.30
2015,09,22,12,11,13.30
2015,09,22,12,12,13.30
2015,09,22,12,13,13.30
2015,09,22,12,14,13.30
2015,09,22,12,15,13.30
2015,09,22,12,16,13.30
2015,09,22,12,17,13.30
2015,09,22,12,18,13.30
2015,09,22,12,19,13.30
2015,09,22,12,20,13.30
2015,09,22,12,21,13.30
2015,09,22,12,22,13.30
2015,09,22,12,23,13.30
2015,09,22,12,24,13.20
2015,09,22,12,25,13.20
2015,09,22,12,26,13.20
2015,09,22,12,27,13.10
2015,09,22,12,28,13.10
2015,09,22,12,29,13.00
2015,09,22,12,30,13.00
2015,09,22,12,31,13.00
2015,09,22,12,32,13.00
2015,09,22,12,33,13.00
2015,09,22,12,34,13.00
2015,09,22,12,35,13.10
2015,09,22,12,36,13.10
2015,09,22,12,37,13.10
2015,09,22,12,38,13.10
2015,09,22,12,39,13.10
2015,09,22,12,40,13.20
2015,09,22,12,41,13.20
2015,09,22,12,42,13.20
2015,09,22,12,43,13.30
2015,09,22,12,44,13.30
2015,09,22,12,45,13.30
2015,09,22,12,46,13.30
2015,09,22,12,47,13.30
2015,09,22,12,48,13.30
2015,09,22,12,49,13.30
2015,09,22,12,50,13.30
2015,09,22,12,51,13.30
2015,09,22,12,52,13.30
2015,09,22,12,53,13.30
2015,09,22,12,54,13.30
2015,09,22,12,55,13.30
2015,09,22,12,56,13.30
2015,09,22,12,57,13.30
2015,09,22,12,58,13.30
2015,09,22,12,59,13.30
2015,09,22,13,00,13.30
2015,09,22,13,01,13.30
2015,09,22,13,02,13.20
2015,09,22,13,03,13.20
2015,09,22,13,04,13.20
2015,09,22,13,05,13.20
2015,09,22,13,06,13.20
2015,09,22,13,07,13.10
2015,09,22,13,08,13.10
2015,09,22,13,09,13.20
2015,09,22,13,10,13.20
2015,09,22,13,11,13.20
2015,09,22,13,12,13.20
2015,09,22,13,13,13.20
2015,09,22,13,14,13.20
2015,09,22,13,15,13.20
2015,09,22,13,16,13.20
2015,09,22,13,17,13.10
2015,09,22,13,18,13.10
2015,09,22,13,19,13.10
2015,09,22,13,20,13.10
2015,09,22,13,21,13.20
2015,09,22,13,22,13.20
2015,09,22,13,23,13.20
2015,09,22,13,24,13.20
2015,09,22,13,25,13.20
2015,09,22,13,26,13.20
2015,09,22,13,27,13.20
2015,09,22,13,28,13.20
2015,09,22,13,29,13.20
2015,09,22,13,30,13.20
2015,09,22,13,31,13.20
2015,09,22,13,32,13.30
2015,09,22,13,33,13.30
2015,09,22,13,34,13.30
2015,09,22,13,35,13.30
2015,09,22,13,36,13.30
2015,09,22,13,37,13.30
2015,09,22,13,38,13.30
2015,09,22,13,39,13.30
2015,09,22,13,40,13.30
2015,09,22,13,41,13.30
2015,09,22,13,42,13.30
2015,09,22,13,43,13.30
2015,09,22,13,44,13.30
2015,09,22,13,45,13.30
2015,09,22,13,46,13.30
2015,09,22,13,47,13.30
2015,09,22,13,48,13.30
2015,09,22,13,49,13.30
2015,09,22,13,50,13.30
2015,09,22,13,51,13.30
2015,09,22,13,52,13.30
2015,09,22,13,53,13.30
2015,09,22,13,54,13.40
2015,09,22,13,55,13.40
2015,09,22,13,56,13.40
2015,09,22,13,57,13.40
2015,09,22,13,58,13.40
2015,09,22,13,59,13.40
2015,09,22,14,00,13.40
2015,09,22,14,01,13.40
2015,09,22,14,02,13.50
2015,09,22,14,03,13.60
2015,09,22,14,04,13.60
2015,09,22,14,05,13.60
2015,09,22,14,06,13.50
2015,09,22,14,07,13.50
2015,09,22,14,08,13.50
2015,09,22,14,09,13.50
2015,09,22,14,10,13.50
2015,09,22,14,11,13.40
2015,09,22,14,12,13.40
2015,09,22,14,13,13.40
2015,09,22,14,14,13.50
2015,09,22,14,15,13.50
2015,09,22,14,16,13.50
2015,09,22,14,17,13.60
2015,09,22,14,18,13.60
2015,09,22,14,19,13.60
2015,09,22,14,20,13.60
2015,09,22,14,21,13.60
2015,09,22,14,22,13.70
2015,09,22,14,23,13.70
2015,09,22,14,24,13.70
2015,09,22,14,25,13.70
2015,09,22,14,26,13.70
2015,09,22,14,27,13.80
2015,09,22,14,28,13.80
2015,09,22,14,29,13.90
2015,09,22,14,30,13.90
2015,09,22,14,31,13.90
2015,09,22,14,32,13.90
2015,09,22,14,33,13.90
2015,09,22,14,34,13.90
2015,09,22,14,35,13.90
2015,09,22,14,36,14.00
2015,09,22,14,37,13.90
2015,09,22,14,38,13.90
2015,09,22,14,39,13.90
2015,09,22,14,40,13.80
2015,09,22,14,41,13.80
2015,09,22,14,42,13.80
2015,09,22,14,43,13.80
2015,09,22,14,44,13.70
2015,09,22,14,45,13.70
2015,09,22,14,46,13.60
2015,09,22,14,47,13.60
2015,09,22,14,48,13.60
2015,09,22,14,49,13.60
2015,09,22,14,50,13.60
2015,09,22,14,51,13.60
2015,09,22,14,52,13.50
2015,09,22,14,53,13.50
2015,09,22,14,54,13.50
2015,09,22,14,55,13.40
2015,09,22,14,56,13.40
2015,09,22,14,57,13.40
2015,09,22,14,58,13.40
2015,09,22,14,59,13.40
2015,09,22,15,00,13.40
2015,09,22,15,01,13.40
2015,09,22,15,02,13.40
2015,09,22,15,03,13.40
2015,09,22,15,04,13.40
2015,09,22,15,05,13.40
2015,09,22,15,06,13.50
2015,09,22,15,07,13.40
2015,09,22,15,08,13.40
2015,09,22,15,09,13.50
2015,09,22,15,10,13.50
2015,09,22,15,11,13.40
2015,09,22,15,12,13.40
2015,09,22,15,13,13.50
2015,09,22,15,14,13.50
2015,09,22,15,15,13.50
2015,09,22,15,16,13.50
2015,09,22,15,17,13.50
2015,09,22,15,18,13.50
2015,09,22,15,19,13.50
2015,09,22,15,20,13.60
2015,09,22,15,21,13.60
2015,09,22,15,22,13.60
2015,09,22,15,23,13.60
2015,09,22,15,24,13.60
2015,09,22,15,25,13.60
2015,09,22,15,26,13.60
2015,09,22,15,27,13.60
2015,09,22,15,28,13.60
2015,09,22,15,29,13.70
2015,09,22,15,30,13.60
2015,09,22,15,31,13.70
2015,09,22,15,32,13.70
2015,09,22,15,33,13.70
2015,09,22,15,34,13.70
2015,09,22,15,35,13.70
2015,09,22,15,36,13.70
2015,09,22,15,37,13.70
2015,09,22,15,38,13.70
2015,09,22,15,39,13.70
2015,09,22,15,40,13.70
2015,09,22,15,41,13.70
2015,09,22,15,42,13.70
2015,09,22,15,43,13.80
2015,09,22,15,44,13.80
2015,09,22,15,45,13.80
2015,09,22,15,46,13.80
2015,09,22,15,47,13.80
2015,09,22,15,48,13.80
2015,09,22,15,49,13.80
2015,09,22,15,50,13.80
2015,09,22,15,51,13.80
2015,09,22,15,52,13.80
2015,09,22,15,53,13.80
2015,09,22,15,54,13.80
2015,09,22,15,55,13.80
2015,09,22,15,56,13.80
2015,09,22,15,57,13.80
2015,09,22,15,58,13.80
2015,09,22,15,59,13.80
2015,09,22,16,00,13.80
2015,09,22,16,01,13.80
2015,09,22,16,02,13.80
2015,09,22,16,03,13.80
2015,09,22,16,04,13.80
2015,09,22,16,05,13.80
2015,09,22,16,06,13.80
2015,09,22,16,07,13.80
2015,09,22,16,08,13.80
2015,09,22,16,09,13.80
2015,09,22,16,10,13.80
2015,09,22,16,11,13.80
2015,09,22,16,12,13.90
2015,09,22,16,13,13.90
2015,09,22,16,14,13.90
2015,09,22,16,15,13.80
2015,09,22,16,16,13.80
2015,09,22,16,17,13.80
2015,09,22,16,18,13.80
2015,09,22,16,19,13.80
2015,09,22,16,20,13.80
2015,09,22,16,21,13.80
2015,09,22,16,22,13.80
2015,09,22,16,23,13.80
2015,09,22,16,24,13.80
2015,09,22,16,25,13.80
2015,09,22,16,26,13.80
2015,09,22,16,27,13.80
2015,09,22,16,28,13.80
2015,09,22,16,29,13.80
2015,09,22,16,30,13.80
2015,09,22,16,31,13.80
2015,09,22,16,32,13.80
2015,09,22,16,33,13.80
2015,09,22,16,34,13.80
2015,09,22,16,35,13.70
2015,09,22,16,36,13.70
2015,09,22,16,37,13.70
2015,09,22,16,38,13.70
2015,09,22,16,39,13.70
2015,09,22,16,40,13.70
2015,09,22,16,41,13.70
2015,09,22,16,42,13.70
2015,09,22,16,43,13.70
2015,09,22,16,44,13.70
2015,09,22,16,45,13.70
2015,09,22,16,46,13.70
2015,09,22,16,47,13.70
2015,09,22,16,48,13.70
2015,09,22,16,49,13.70
2015,09,22,16,50,13.70
2015,09,22,16,51,13.70
2015,09,22,16,52,13.70
2015,09,22,16,53,13.70
2015,09,22,16,54,13.80
2015,09,22,16,55,13.80
2015,09,22,16,56,13.80
2015,09,22,16,57,13.80
2015,09,22,16,58,13.80
2015,09,22,16,59,13.80
2015,09,22,17,00,13.80
2015,09,22,17,01,13.80
2015,09,22,17,02,13.80
2015,09,22,17,03,13.80
2015,09,22,17,04,13.80
2015,09,22,17,05,13.80
2015,09,22,17,06,13.80
2015,09,22,17,07,13.80
2015,09,22,17,08,13.80
2015,09,22,17,09,13.70
2015,09,22,17,10,13.70
2015,09,22,17,11,13.80
2015,09,22,17,12,13.70
2015,09,22,17,13,13.70
2015,09,22,17,14,13.70
2015,09,22,17,15,13.70
2015,09,22,17,16,13.70
2015,09,22,17,17,13.70
2015,09,22,17,18,13.70
2015,09,22,17,19,13.70
2015,09,22,17,20,13.70
2015,09,22,17,21,13.70
2015,09,22,17,22,13.70
2015,09,22,17,23,13.70
2015,09,22,17,24,13.70
2015,09,22,17,25,13.70
2015,09,22,17,26,13.70
2015,09,22,17,27,13.70
2015,09,22,17,28,13.70
2015,09,22,17,29,13.70
2015,09,22,17,30,13.70
2015,09,22,17,31,13.70
2015,09,22,17,32,13.70
2015,09,22,17,33,13.70
2015,09,22,17,34,13.70
2015,09,22,17,35,13.70
2015,09,22,17,36,13.70
2015,09,22,17,37,13.70
2015,09,22,17,38,13.70
2015,09,22,17,39,13.70
2015,09,22,17,40,13.70
2015,09,22,17,41,13.70
2015,09,22,17,42,13.60
2015,09,22,17,43,13.60
2015,09,22,17,44,13.60